Location: Chiroubles
(46.1812°N, 4.6660°E)
Time: 01:15:01
(UTC+00:00)

Okean 1-7 - Pass Details

Date: 15 August 2020
Orbit: 590 x 619 km, 82.5° (Epoch: 19 September)

Event Time Altitude Azimuth Distance (km) Brightness Sun altitude
Rises 20:53:52 0° 350° (N) 2,866 7.4 -18.8°
Reaches altitude 10° 20:56:06 10° 349° (N) 1,953 6.4 -19.0°
Maximum altitude 21:00:25 81° 263° (W) 610 3.0 -19.5°
Enters shadow 21:01:54 40° 181° (S) 879 3.5 -19.7°
